Theta_e
321 323 325 325 328 326 327 334 328 340 362 361 361 362 359 358 358 360 358 354 356 361 362 361 359 360 359 358 358 359 357 351 346 349 348 346 343 342 342 343 344 344 344 343 344 346 347 348 349 350 350 350 349 349 350 349 350 350 350 350 351 351 351 351 350 350 350 350 350 350 349 349 351 352 351 350 349 348 348 349 350 351 352 352 352 351
320 321 324 325 329 326 322 324 319 333 359 363 363 362 358 358 359 359 356 353 355 360 361 360 360 360 358 357 356 358 358 354 348 346 345 345 345 343 342 343 345 344 342 343 345 346 347 348 349 349 349 349 350 349 350 350 350 351 350 350 351 351 351 351 350 350 350 350 350 349 348 349 349 349 349 349 349 349 349 349 351 353 353 353 353 352
319 320 322 322 322 322 322 321 324 346 363 363 363 361 356 358 360 358 357 354 354 359 360 359 361 359 357 356 355 356 359 362 360 353 346 342 344 345 342 343 344 343 343 345 345 345 346 347 348 348 349 349 349 349 350 350 350 350 350 350 351 351 351 351 350 349 349 349 349 348 347 348 348 348 349 350 351 352 352 350 351 353 354 354 354 352
315 318 320 320 318 320 321 319 335 357 361 361 362 358 355 359 358 356 358 355 354 358 359 360 360 360 359 357 355 354 356 361 364 364 359 346 343 344 342 343 343 342 345 346 346 346 346 347 347 348 348 348 348 349 349 349 350 350 349 349 351 351 351 350 348 348 349 349 349 347 346 347 347 348 349 350 351 353 353 351 351 352 353 354 354 353
315 317 317 318 318 320 319 323 349 362 356 357 360 358 359 360 359 358 358 356 355 356 358 360 358 357 359 357 356 356 355 357 360 368 365 350 344 343 341 342 342 343 346 346 346 346 346 346 347 347 347 348 348 348 349 350 350 350 349 350 351 351 350 348 348 348 349 350 349 348 349 350 350 350 350 351 352 354 353 352 351 352 352 353 354 354
317 316 315 316 318 320 318 323 348 358 353 354 356 359 361 359 360 360 358 356 355 354 358 360 354 353 359 358 358 359 358 358 360 365 364 352 346 344 342 341 341 345 347 346 347 345 346 347 346 347 347 347 348 348 350 350 350 350 349 350 350 350 349 348 349 349 349 350 350 349 351 352 352 353 353 353 353 354 354 352 352 353 352 350 352 354
318 317 316 317 317 320 318 318 337 355 354 353 357 358 359 359 360 359 357 356 354 354 357 358 354 353 356 357 357 359 361 360 359 362 364 360 352 344 342 342 340 344 347 345 346 345 345 347 346 346 347 347 348 348 350 350 350 350 349 350 350 350 350 349 349 349 349 351 351 349 349 350 352 353 354 354 354 354 353 354 353 353 352 350 350 350
319 317 316 318 315 318 319 315 330 352 352 351 356 358 359 360 359 357 358 357 355 356 356 357 356 353 353 355 357 358 360 361 360 360 361 362 360 349 341 341 340 342 346 346 346 347 346 346 346 347 347 348 348 349 350 351 351 351 350 350 350 351 352 351 350 351 351 352 352 350 349 349 350 351 352 352 353 353 354 354 354 353 352 352 351 350
322 321 318 317 315 317 318 318 333 354 356 354 354 356 356 358 358 358 359 358 356 354 353 355 356 352 351 356 359 359 359 361 361 360 357 360 364 357 344 340 340 341 346 346 346 346 346 346 346 347 347 348 348 349 350 351 351 351 351 351 351 352 353 352 352 352 353 353 352 351 351 351 350 349 349 350 351 354 354 354 354 354 354 353 353 354
321 323 321 316 316 317 316 324 343 360 362 355 350 351 351 353 355 358 359 357 354 353 352 353 354 352 351 355 358 358 358 360 360 359 355 356 363 363 352 342 340 342 345 346 346 345 345 346 347 347 348 348 349 349 350 351 352 352 352 352 353 353 353 353 353 353 353 352 352 352 352 352 352 350 349 349 352 355 355 354 354 354 354 355 356 356
321 322 325 321 320 319 323 338 350 356 356 351 349 350 348 353 358 359 360 356 350 352 352 349 352 352 350 353 357 357 357 358 358 358 355 355 360 365 359 348 341 342 345 347 345 345 345 346 347 347 347 348 349 350 350 351 352 352 352 353 353 353 352 353 353 354 353 352 352 351 351 352 351 350 349 351 353 355 355 354 355 355 354 356 357 356
323 321 325 326 326 331 341 351 352 350 349 350 353 349 345 352 358 357 357 354 349 351 353 350 353 353 349 353 361 362 357 354 355 356 355 355 358 363 362 355 346 340 343 347 347 346 345 345 347 347 347 348 349 350 350 351 352 352 352 353 352 352 352 353 353 353 354 352 351 350 350 351 351 350 350 352 353 353 353 354 355 354 354 356 357 356
326 324 322 323 331 344 352 354 351 349 350 351 351 347 346 350 353 352 352 351 350 352 355 353 353 352 350 356 365 364 358 354 355 354 353 353 356 361 361 357 351 341 340 345 347 347 346 345 346 347 347 348 349 350 351 351 352 352 352 352 352 352 352 353 354 354 353 352 351 350 350 349 350 350 350 351 353 352 353 354 354 354 355 356 357 356
326 327 324 322 329 340 350 353 349 350 351 347 344 343 348 351 351 353 351 348 349 351 353 356 355 352 352 360 367 363 357 355 354 352 352 352 354 358 358 356 353 344 339 343 346 348 347 346 346 347 347 348 349 350 351 351 352 352 352 352 351 352 353 354 354 354 353 353 352 351 350 349 349 350 351 352 353 353 354 354 354 354 354 355 356 356
320 320 324 324 322 329 345 352 350 352 351 346 346 343 343 348 350 351 352 351 352 352 352 354 353 351 353 362 367 362 355 353 353 352 351 351 353 356 355 355 355 348 340 341 345 346 347 345 346 347 347 347 348 349 350 352 352 352 352 352 352 353 353 355 355 354 354 354 353 353 352 350 349 351 352 352 353 353 353 353 353 353 354 355 355 355
317 318 324 324 320 325 341 349 347 349 348 344 344 341 337 344 350 348 350 351 351 352 353 352 352 357 361 364 365 360 354 353 354 354 353 352 352 355 355 354 355 351 344 341 343 346 346 346 346 347 347 348 348 349 349 351 352 352 353 353 353 353 353 355 355 354 355 354 354 354 353 352 352 352 353 353 353 352 351 352 352 352 353 353 354 354
317 321 325 324 324 325 332 343 345 345 346 342 338 338 339 344 348 347 347 348 346 346 348 349 353 358 359 361 364 360 355 354 355 354 354 354 353 354 355 354 354 354 350 344 342 344 344 345 347 347 347 348 348 349 349 350 352 353 353 353 353 354 354 354 355 355 355 356 355 354 354 354 354 353 353 353 353 351 351 351 352 353 353 354 354 354
318 321 325 324 325 325 324 334 344 343 342 340 337 340 342 340 343 347 348 348 344 343 345 348 352 353 350 355 364 361 354 354 354 354 353 353 353 353 354 354 353 354 353 348 343 342 342 343 346 347 347 348 348 349 350 350 351 352 352 354 354 354 354 354 355 356 356 356 355 355 355 354 353 353 353 353 353 353 352 353 353 354 354 354 354 354
320 320 325 326 323 324 324 329 339 340 334 335 337 340 342 339 336 336 340 344 344 344 347 348 350 351 349 352 362 362 355 353 353 354 354 353 353 354 354 354 353 353 354 351 346 343 341 341 345 347 347 348 348 349 350 350 351 352 352 353 354 354 354 354 355 356 356 356 356 356 356 354 352 353 352 352 353 353 354 354 355 355 355 355 355 354
326 320 321 326 324 323 325 326 326 326 326 329 330 330 337 341 337 333 335 339 343 346 346 344 345 349 351 356 366 365 356 352 353 354 355 353 351 352 353 355 354 353 354 354 350 346 341 339 343 346 347 348 348 348 350 351 351 352 352 353 354 354 354 354 355 356 356 356 356 356 357 355 353 353 353 353 353 353 354 355 355 354 355 355 355 355
331 324 319 326 328 322 324 325 322 321 324 324 322 321 326 333 334 334 334 336 343 348 345 343 344 348 353 357 366 368 359 353 353 355 355 352 353 357 360 360 358 355 356 357 354 349 342 338 341 345 346 347 348 348 350 352 352 353 353 353 354 354 355 355 355 356 356 356 356 357 358 357 355 354 354 354 354 354 355 355 355 354 355 355 355 354
328 327 322 326 326 321 323 325 324 325 324 322 324 322 323 328 330 333 333 332 341 347 344 344 344 347 353 356 360 366 362 356 355 358 357 355 358 362 364 364 363 361 361 360 357 352 346 342 341 343 344 345 347 348 351 352 352 353 354 354 354 355 355 355 355 356 356 355 356 356 357 358 357 355 354 355 354 354 355 355 355 355 355 355 355 354
333 333 326 325 326 324 325 326 326 327 326 326 330 328 330 335 333 333 333 331 335 341 342 342 340 342 353 358 359 359 359 357 358 361 360 357 360 363 365 364 362 362 361 358 357 354 348 346 346 345 345 345 346 348 351 353 353 354 354 354 354 355 355 355 355 356 356 356 356 356 357 358 357 356 355 355 354 354 354 355 354 354 355 355 355 354
336 334 326 329 337 335 329 329 327 327 331 332 332 333 337 340 336 334 336 338 340 340 339 338 336 340 352 359 359 357 357 358 358 359 359 356 358 362 363 362 360 360 357 354 355 354 348 347 349 348 347 347 347 349 351 353 353 354 354 355 354 355 355 355 355 356 356 356 356 356 357 358 357 356 355 354 353 353 354 355 354 355 355 355 355 355
324 330 333 334 338 338 334 334 329 327 330 331 330 334 342 349 349 338 334 340 343 338 336 335 334 340 352 357 358 358 358 359 359 359 358 356 356 357 357 358 359 358 355 353 355 357 355 352 350 349 348 348 348 348 350 351 353 354 355 355 355 355 356 356 356 356 356 355 356 356 357 357 357 356 354 354 353 353 353 354 355 356 356 356 356 355
325 335 344 339 334 334 333 333 330 328 329 331 336 342 346 352 354 339 328 333 337 336 334 334 336 344 356 358 357 357 359 359 361 360 359 358 356 355 356 357 357 357 354 353 355 357 359 356 350 348 348 348 348 348 348 349 351 352 354 355 356 356 356 356 356 356 356 356 356 356 356 356 355 354 353 353 354 354 353 353 354 356 356 355 355 355
339 339 348 346 338 335 335 334 334 333 332 335 343 347 347 349 351 345 333 329 335 338 335 339 347 352 358 361 358 358 359 359 360 360 359 358 356 356 357 356 356 356 353 352 353 355 357 355 351 348 349 348 348 348 348 349 349 349 351 354 355 355 356 357 357 357 356 357 356 356 356 355 354 354 353 354 354 354 354 354 354 355 355 354 353 353
344 332 337 342 334 332 337 338 338 339 340 341 344 346 347 348 352 355 345 336 338 335 330 343 360 359 357 360 358 356 357 357 358 359 358 357 356 356 357 356 357 356 353 352 353 353 354 354 352 349 349 349 348 348 349 350 350 349 351 354 354 355 355 356 356 357 357 357 357 357 356 356 355 355 356 356 355 355 354 355 355 355 354 353 352 352
343 326 327 333 331 332 337 338 340 344 344 344 344 345 347 348 350 354 352 349 349 339 333 348 363 361 358 359 357 354 355 356 357 356 354 354 355 356 356 357 357 355 354 353 353 352 352 353 352 350 349 349 348 349 350 350 350 351 352 354 355 355 355 355 356 357 356 356 357 357 357 356 356 356 357 357 356 355 355 355 355 354 353 352 351 351
338 330 330 333 332 333 336 337 341 344 344 344 342 340 344 347 348 350 352 353 355 352 351 357 360 360 359 357 355 353 351 353 354 353 353 355 356 356 356 357 356 355 354 354 353 352 352 352 350 349 350 349 348 349 350 350 351 351 352 353 354 354 355 355 356 356 355 356 356 356 356 356 356 356 356 357 356 356 356 355 355 354 352 350 350 350
329 329 341 347 334 329 335 338 337 341 344 346 342 338 343 347 347 349 350 351 355 356 357 359 359 360 358 352 352 351 349 352 355 354 355 355 354 355 356 356 356 355 354 353 353 353 352 352 350 348 349 349 347 348 349 350 351 351 351 352 353 354 354 353 355 354 354 355 355 355 355 354 354 355 354 355 355 355 355 355 355 354 351 350 350 350
329 329 344 355 337 326 332 334 335 339 341 344 344 340 343 349 348 347 348 349 352 355 355 355 357 360 357 351 351 351 350 353 355 354 355 354 353 354 354 354 355 354 354 353 352 352 352 351 349 348 348 347 346 347 348 349 350 350 350 350 350 353 353 353 354 353 353 353 353 353 353 352 352 353 353 354 354 354 354 354 354 353 351 351 351 351
336 335 338 344 335 330 335 337 339 340 336 341 345 340 343 350 348 346 348 346 347 351 355 355 354 356 356 353 352 352 351 352 352 350 350 352 353 353 353 353 353 352 352 352 351 351 350 347 346 345 345 346 346 347 347 348 349 348 348 349 349 351 352 352 354 353 352 352 351 351 352 352 352 353 352 353 353 354 355 354 355 354 354 354 355 354
348 350 342 340 333 331 340 345 343 339 337 341 344 342 344 348 346 347 349 346 344 346 348 348 348 349 351 351 351 352 350 348 347 346 347 350 352 352 352 352 350 348 347 346 347 347 344 342 342 342 343 344 345 346 347 347 348 347 348 348 348 349 350 351 352 352 352 352 351 351 352 352 352 352 353 353 353 354 356 356 357 357 357 357 357 356
354 350 343 343 336 332 343 348 340 339 343 343 342 342 343 343 345 347 345 343 343 343 342 342 343 343 345 345 346 347 347 347 346 346 347 348 348 349 349 349 346 344 343 341 342 341 340 339 339 339 340 342 344 346 347 347 347 347 347 348 348 348 348 349 349 350 350 352 352 352 352 353 353 353 353 354 353 353 354 355 357 358 358 358 357 356
352 346 344 344 333 328 337 341 336 338 343 342 340 342 341 341 344 346 346 344 342 342 342 342 341 342 342 342 343 345 345 345 345 345 345 345 345 345 346 346 344 342 341 339 338 338 338 337 336 337 337 339 342 345 346 347 347 346 346 347 347 347 347 347 347 347 348 349 350 351 351 352 353 353 353 353 352 353 353 354 355 356 356 355 355 355
345 345 346 339 331 333 340 341 339 339 339 340 343 344 342 341 340 344 350 348 342 342 344 342 341 344 344 343 344 345 343 343 346 346 343 341 341 341 341 342 340 339 339 337 336 336 335 334 335 336 336 336 338 340 341 343 344 344 343 344 345 345 345 345 344 345 346 346 347 348 350 351 351 352 352 352 351 351 352 352 353 352 349 349 350 350
334 335 337 330 329 339 347 345 342 343 343 343 344 342 341 339 336 341 349 348 342 344 345 342 343 345 343 342 343 344 345 347 349 347 342 340 339 338 338 339 338 337 337 335 335 334 333 333 335 336 338 337 337 338 339 340 341 341 340 341 342 343 343 342 342 343 345 345 346 347 348 348 349 349 349 349 348 348 349 349 348 346 345 346 347 348
333 337 343 337 333 339 345 345 345 345 346 346 346 343 340 337 335 340 347 348 344 345 345 344 343 343 344 345 345 347 350 351 349 346 342 340 339 338 338 337 336 336 335 334 334 333 331 332 333 335 337 337 335 337 340 341 341 340 338 338 340 340 340 341 341 342 343 343 343 344 345 345 346 346 346 345 344 344 345 345 344 344 344 344 345 345
338 344 347 341 340 341 342 343 344 342 339 341 347 348 341 336 337 341 346 346 344 344 345 345 344 344 343 344 347 351 352 349 347 344 341 340 339 338 337 336 335 334 334 333 332 331 330 331 331 331 332 332 332 334 336 338 339 337 336 337 338 338 338 338 339 340 340 339 339 339 340 340 341 342 341 342 342 342 343 343 343 343 343 343 343 343
339 344 343 341 344 345 341 338 339 341 341 343 350 351 342 336 337 342 346 347 344 344 344 344 345 344 341 342 348 350 347 344 343 342 340 339 338 337 336 335 334 333 332 331 330 329 330 330 330 330 330 331 331 332 333 335 334 333 333 336 336 336 336 337 338 338 337 336 336 336 336 337 337 339 340 340 340 339 338 339 341 341 341 342 341 340
335 337 336 337 338 341 343 342 339 339 339 340 344 343 337 336 340 344 345 345 346 346 344 342 344 344 341 343 345 343 341 341 341 340 339 338 337 336 335 333 331 330 330 329 329 329 329 328 328 328 328 329 330 330 331 332 330 328 330 331 332 333 334 335 335 335 335 334 334 334 334 334 335 337 338 337 336 335 335 336 338 340 340 339 339 339
334 334 334 336 335 337 341 342 337 336 337 336 335 336 338 341 346 346 343 341 344 344 343 342 343 342 341 341 340 339 340 341 340 339 338 336 336 335 333 331 329 328 328 327 327 327 326 326 325 325 326 327 327 327 327 327 325 324 324 324 324 326 329 331 331 332 332 331 331 331 332 333 333 334 335 335 334 334 335 335 337 339 339 336 336 336
332 335 337 338 338 340 342 342 340 341 343 339 336 341 347 346 343 343 344 343 342 341 341 343 342 340 339 340 339 339 340 340 340 339 337 336 336 334 332 330 327 326 326 326 326 326 325 325 325 325 326 326 326 326 326 326 325 326 325 325 325 325 326 327 327 328 327 326 325 325 325 326 328 329 330 331 332 333 333 334 335 338 338 335 333 333
330 335 339 338 336 338 343 343 342 340 338 336 337 344 346 340 337 341 344 344 342 340 340 341 341 339 338 337 338 339 340 340 340 338 336 337 336 334 332 329 326 325 326 326 327 328 327 326 326 326 326 326 325 325 325 324 325 325 326 326 326 325 324 324 324 323 322 322 320 320 320 320 321 323 323 323 325 328 330 332 333 335 337 335 332 331
330 335 342 339 333 334 338 337 336 337 335 333 334 338 340 337 336 339 342 343 342 340 340 340 340 339 338 337 338 339 340 340 340 338 336 336 335 333 331 328 325 325 325 326 327 328 328 327 327 327 326 325 325 325 325 324 324 324 325 325 325 324 322 322 322 322 322 321 320 320 321 321 321 321 320 319 319 321 324 327 330 333 335 336 334 332
331 337 343 341 335 338 341 336 333 335 339 336 331 331 334 336 335 336 340 342 341 339 340 340 340 341 340 339 339 339 338 340 340 338 336 336 336 332 328 326 326 325 325 326 327 327 327 327 327 326 326 325 326 326 325 325 325 325 325 325 325 323 321 320 322 323 322 321 321 321 321 322 322 321 321 321 321 321 321 322 325 328 331 334 334 334
333 336 339 340 339 340 340 334 328 330 337 339 332 329 330 332 332 332 334 337 337 338 338 338 338 341 342 340 339 338 337 338 340 338 337 336 334 330 327 326 326 325 325 325 325 324 325 325 324 325 325 325 324 324 323 323 324 324 324 324 324 324 323 322 323 322 320 319 320 320 320 322 323 322 322 322 322 322 321 320 320 322 325 328 331 333
336 333 334 338 338 334 332 329 328 331 334 333 331 330 329 330 333 332 331 332 334 336 337 336 335 336 337 336 336 336 336 337 337 336 337 337 333 328 327 326 325 325 324 324 323 322 322 323 323 324 323 323 323 323 323 323 323 323 324 325 325 325 324 324 324 323 322 321 321 320 320 321 322 321 321 321 322 323 322 318 315 315 317 320 324 328
335 333 333 335 336 335 334 332 331 334 334 330 329 331 329 328 333 335 332 332 333 333 335 335 333 331 332 332 332 334 338 338 334 332 334 334 331 328 327 326 325 325 325 324 323 323 323 324 325 324 322 322 324 324 325 324 323 323 324 323 324 324 323 322 322 323 323 322 320 320 320 320 320 321 321 320 320 319 318 316 315 314 312 311 313 317
338 336 334 336 337 336 336 333 331 334 334 329 329 330 328 327 330 332 331 330 330 330 332 335 336 335 334 331 329 332 335 335 331 330 330 329 328 327 327 326 326 325 325 324 324 325 325 325 325 323 322 323 325 326 326 324 323 322 321 320 320 322 323 322 321 322 322 321 320 319 319 319 319 320 321 321 320 318 317 318 319 319 317 312 308 306
Wind_Speed
1 0 2 4 6 7 8 6 5 2 3 4 3 3 4 3 3 3 4 2 1 3 4 5 8 8 6 5 3 3 4 6 11 9 7 8 7 7 9 9 10 10 10 15 22 23 24 25 24 24 24 26 28 28 29 28 27 25 24 24 22 22 21 21 21 21 21 21 20 20 20 20 20 20 18 17 16 15 14 14 14 13 11 11 9 8
2 2 6 8 9 8 5 3 3 3 3 4 4 4 3 2 2 2 3 4 0 1 2 2 8 8 5 4 2 1 2 6 10 10 10 10 8 7 9 11 10 8 9 13 17 20 23 23 24 25 25 26 27 28 29 28 27 25 25 26 25 24 23 22 22 22 21 20 20 20 21 22 21 20 18 16 15 13 12 14 15 14 12 11 9 9
3 3 10 10 7 4 2 4 4 3 4 4 4 5 3 3 4 4 4 5 2 1 1 2 8 7 4 4 3 3 3 4 4 5 9 11 9 8 9 11 10 7 8 10 12 17 22 23 24 25 25 26 27 28 28 28 28 27 27 27 26 25 24 23 23 23 21 19 19 21 21 21 21 19 17 15 14 12 11 12 15 15 13 11 10 10
3 6 8 6 4 2 2 4 3 3 3 3 4 4 3 5 4 2 5 7 2 0 2 3 5 4 3 4 3 5 5 4 3 4 5 9 11 10 10 11 10 9 10 11 11 14 19 22 23 23 25 26 26 26 26 28 29 28 28 27 26 25 25 26 25 23 21 18 18 21 20 20 20 19 19 16 14 13 11 11 13 14 14 13 11 10
7 10 5 2 3 4 3 4 4 5 3 3 5 4 4 9 5 2 7 9 3 2 2 6 4 1 3 4 4 5 5 4 2 3 4 8 10 11 11 11 10 11 12 13 12 12 16 20 22 24 25 27 26 26 26 28 30 29 29 29 26 25 26 27 25 23 21 18 18 20 20 18 18 18 19 19 18 16 14 12 13 13 13 14 13 11
10 11 4 3 4 6 4 5 5 6 4 2 5 4 6 9 6 7 11 9 4 1 3 5 5 4 5 6 6 5 4 5 2 2 4 7 8 8 11 11 10 10 12 13 13 13 15 19 21 23 25 26 26 27 28 29 29 29 30 29 27 26 26 26 24 23 21 18 18 21 21 19 18 18 19 20 20 18 16 13 12 11 11 13 14 12
6 7 4 7 7 6 5 5 6 7 5 2 5 4 6 7 8 11 12 6 2 3 2 2 3 3 4 7 8 6 6 7 4 3 4 4 6 7 9 10 9 10 11 11 13 14 16 19 20 21 24 26 27 28 29 29 29 30 30 29 28 27 26 26 24 23 21 19 19 21 22 20 19 20 20 19 18 16 15 13 11 11 10 12 13 13
4 5 3 7 6 5 5 5 7 8 6 3 2 8 10 9 9 10 7 3 1 3 3 2 1 1 3 7 9 7 7 8 7 6 5 4 6 8 9 10 10 12 12 11 11 13 16 20 21 22 25 27 29 29 29 28 29 30 30 29 29 28 27 26 25 23 21 20 20 20 20 20 20 20 20 19 17 15 14 13 12 11 11 12 12 12
2 4 7 7 5 5 5 7 8 9 5 1 6 12 11 8 8 6 3 3 2 2 2 5 3 1 3 4 6 7 9 10 9 8 7 5 6 7 9 10 10 12 13 12 12 13 16 21 24 25 27 28 29 29 29 29 29 30 30 29 28 28 28 27 25 23 21 20 21 21 20 20 19 20 19 18 17 15 14 14 13 12 12 13 13 11
4 6 6 4 4 6 7 8 10 12 7 5 12 14 11 8 7 4 3 3 2 1 1 5 6 3 2 3 6 7 9 11 9 8 7 6 6 7 8 9 9 11 12 13 13 16 20 24 26 27 27 27 28 30 30 29 29 29 29 28 28 28 29 28 25 22 21 21 21 21 21 21 20 20 19 18 18 17 16 16 15 13 14 14 13 12
7 5 3 3 4 6 5 3 8 14 13 11 12 12 9 6 4 3 2 2 2 1 1 5 5 2 1 3 6 6 6 8 9 7 8 7 7 7 6 7 8 9 11 12 13 16 22 26 27 27 26 27 28 29 29 28 28 29 29 28 27 27 28 28 26 23 21 22 22 22 22 22 21 21 20 20 20 18 17 18 17 15 16 15 13 12
7 3 2 4 2 5 8 8 8 15 16 10 6 7 7 3 2 3 3 2 1 2 2 5 3 0 2 4 4 4 5 8 10 10 11 10 9 7 6 6 8 9 11 12 11 13 17 20 22 24 25 26 27 27 28 28 29 29 29 29 27 26 27 27 26 24 23 22 22 23 23 22 22 22 22 22 22 20 19 19 18 16 17 16 14 13
5 3 3 4 2 8 11 9 5 7 8 7 5 5 5 3 3 2 2 1 1 2 1 4 4 1 4 4 4 5 8 11 11 11 11 11 10 8 7 7 7 8 10 11 11 11 12 14 18 22 23 24 26 27 28 28 29 29 30 29 28 27 27 26 25 25 24 23 22 22 23 23 23 23 22 22 22 21 20 19 19 18 18 17 16 15
4 4 4 4 3 3 9 11 5 1 3 7 7 4 4 3 2 1 2 2 2 3 1 3 3 2 3 4 6 9 10 11 11 12 11 11 11 10 8 8 6 8 11 11 11 11 11 14 19 23 24 25 26 28 29 29 30 30 29 29 29 28 28 27 26 25 24 23 22 21 22 23 23 22 22 21 21 21 21 21 19 19 19 19 18 16
1 3 4 2 1 2 3 11 12 9 8 6 3 3 4 5 4 3 4 2 1 1 2 3 2 3 2 2 4 8 11 11 10 11 10 9 9 8 7 7 6 8 10 10 11 12 13 18 23 24 25 26 27 28 29 29 30 30 30 31 30 29 29 28 27 26 25 24 22 21 21 22 22 22 21 20 20 21 22 21 20 19 19 19 18 16
1 2 5 4 3 3 4 7 9 10 7 3 0 3 2 4 5 3 3 4 4 2 2 2 2 2 3 2 3 3 7 10 10 10 10 10 8 7 7 7 7 8 9 10 12 12 14 21 24 24 26 27 28 29 29 29 31 31 31 32 32 31 30 30 29 28 26 25 24 23 22 22 21 22 21 20 20 21 21 20 20 19 19 18 17 15
2 4 6 5 4 2 5 6 8 8 5 1 0 2 3 2 6 5 1 1 3 2 1 2 2 2 1 2 3 3 4 7 10 11 11 11 10 9 8 8 8 8 9 10 12 12 14 20 23 25 27 28 28 29 30 31 32 33 33 32 32 32 31 31 30 29 27 26 25 25 24 22 22 22 21 21 21 21 20 19 19 19 18 17 16 15
1 4 6 4 7 6 2 6 5 6 5 5 2 5 2 2 3 4 2 2 2 1 1 1 3 2 1 1 3 6 6 7 9 11 11 11 11 11 9 9 9 9 9 10 11 13 15 19 22 24 27 29 31 31 32 33 34 34 34 34 33 32 32 32 31 30 29 27 27 26 25 23 22 22 22 21 21 21 20 19 18 18 18 17 16 15
2 2 6 2 5 8 4 6 2 6 3 2 4 4 3 2 1 2 2 1 1 1 1 1 3 3 4 3 4 8 10 10 9 10 11 12 12 11 10 10 10 9 8 8 9 10 12 17 22 25 27 29 31 32 34 35 34 34 35 35 35 34 34 34 32 30 29 29 28 27 26 24 23 22 22 21 21 20 20 19 19 18 18 16 16 16
2 2 4 5 6 6 4 4 2 4 6 3 1 2 2 2 3 2 2 3 3 2 2 1 2 3 4 5 7 10 12 11 10 10 11 12 13 11 10 9 9 9 8 7 8 9 11 17 23 26 28 30 31 32 32 33 33 34 34 34 34 34 34 33 31 30 30 29 28 27 25 25 24 22 21 20 20 21 20 20 19 18 17 15 15 16
2 3 2 6 7 3 1 1 2 3 3 3 2 0 1 0 1 2 1 1 3 3 2 1 1 4 4 4 8 10 10 10 10 10 10 11 11 8 7 7 7 7 7 7 8 9 12 19 24 27 28 30 31 31 31 32 33 33 33 34 34 32 31 31 31 30 30 29 28 27 26 25 24 22 21 20 20 20 20 19 19 18 16 15 15 15
2 2 1 4 5 2 3 3 2 1 3 3 2 0 2 2 2 2 1 2 2 3 3 3 2 4 4 1 5 7 7 6 8 9 8 9 10 9 7 7 7 7 7 7 7 5 6 9 15 21 26 28 29 29 30 31 33 32 32 32 32 31 31 31 31 30 30 29 28 28 26 24 23 22 22 21 20 20 20 20 19 17 16 16 15 16
1 3 2 2 4 4 6 7 5 3 2 3 3 2 1 1 3 4 3 3 1 2 1 2 1 4 4 3 2 5 5 5 7 8 9 9 9 9 7 6 6 7 7 7 7 6 8 9 4 3 11 17 24 28 31 31 30 31 32 32 31 31 31 32 32 31 30 29 28 28 26 24 23 22 22 22 21 20 20 20 19 17 17 17 16 16
1 3 3 3 5 5 6 5 3 5 5 3 3 4 3 3 1 3 5 3 3 2 1 1 1 3 3 5 2 2 4 6 4 4 8 9 8 9 9 6 5 6 7 9 7 7 11 15 11 5 2 1 6 12 20 28 32 31 30 31 32 32 32 32 31 31 30 29 28 27 26 25 23 22 21 22 22 21 20 21 20 18 17 17 17 17
2 1 3 4 4 6 7 5 5 7 6 3 3 5 4 5 4 1 1 3 2 2 3 4 3 3 3 5 5 5 5 6 4 2 4 7 8 9 9 7 6 6 8 9 9 9 10 12 12 10 8 6 4 4 3 9 21 30 32 32 32 32 32 32 31 30 30 29 28 26 26 25 24 23 22 22 22 22 21 22 21 20 19 18 18 18
2 1 3 4 3 2 3 3 3 5 4 3 5 7 7 7 5 2 1 3 1 2 2 4 3 1 2 5 6 6 5 5 4 4 2 3 6 7 7 7 7 7 8 10 11 11 12 12 13 14 16 15 13 10 6 7 5 11 18 22 25 25 24 25 27 30 30 29 28 27 26 26 25 24 23 23 22 22 22 22 22 21 20 20 20 20
4 2 2 5 5 4 4 4 5 3 3 4 7 9 9 9 6 2 4 3 2 2 1 3 4 4 2 3 5 4 5 4 3 4 3 2 3 3 4 5 5 5 6 8 8 8 9 12 15 18 20 20 18 18 18 12 7 6 7 8 14 20 21 19 19 24 27 28 28 27 27 27 26 25 23 23 22 21 21 21 21 21 20 21 21 22
5 2 0 5 4 4 6 5 4 3 4 4 7 10 11 11 8 5 3 2 3 3 2 4 4 5 2 2 4 3 4 4 3 4 4 2 3 3 3 4 4 4 4 5 5 5 6 7 10 14 18 20 21 21 22 22 19 16 14 11 12 17 22 21 18 19 21 23 25 25 25 25 25 24 23 23 22 21 21 20 20 20 20 20 21 21
6 1 3 4 2 3 5 3 1 5 3 2 6 9 10 11 9 6 2 4 3 4 3 2 5 6 2 3 4 4 4 5 4 4 3 3 3 3 3 3 4 4 4 4 4 4 4 4 5 10 13 17 21 22 23 25 25 25 27 26 22 21 23 23 23 23 22 22 23 23 24 24 24 24 24 24 24 23 22 21 21 20 19 19 19 19
5 0 2 4 2 2 3 1 3 5 3 3 6 8 8 8 7 4 5 4 4 5 3 5 10 8 4 4 4 4 4 4 4 5 4 5 5 4 4 3 3 3 3 4 4 3 4 3 4 7 11 15 19 21 23 26 27 28 29 29 30 29 25 23 25 25 24 24 24 23 23 21 21 23 24 24 24 24 23 23 23 21 18 17 16 15
3 0 1 3 3 1 3 2 0 3 4 4 6 9 9 8 7 6 6 6 6 7 7 8 9 7 5 5 6 6 5 5 6 6 5 4 4 5 5 4 3 3 3 4 4 4 4 4 5 6 9 12 15 18 21 24 27 29 27 25 28 31 27 24 24 24 23 23 23 22 21 18 17 19 21 22 22 23 23 23 23 21 18 18 17 16
3 1 2 4 4 2 3 3 3 1 3 5 6 9 10 7 5 5 6 5 5 4 4 6 5 3 4 5 6 6 6 7 7 6 5 4 4 4 5 5 5 4 4 4 4 5 5 4 5 6 8 11 13 15 17 21 24 27 28 26 27 29 27 24 23 22 20 19 18 19 20 18 16 17 19 19 20 20 20 21 21 19 18 18 18 17
3 3 1 3 2 3 4 3 2 1 3 4 3 4 4 2 0 2 5 7 6 3 3 3 3 2 4 6 6 7 7 7 6 6 5 5 4 4 4 5 6 5 5 5 5 6 6 7 9 10 10 12 14 15 16 19 21 22 24 25 24 24 25 24 22 20 20 18 17 18 19 18 16 16 16 17 17 16 16 15 15 14 14 15 14 14
3 4 2 3 3 3 6 4 4 2 1 4 3 1 2 2 3 2 4 6 6 3 3 3 6 6 7 8 7 7 8 6 6 6 6 4 4 5 5 6 6 6 7 7 7 7 7 10 14 16 15 15 17 16 15 17 17 16 17 19 19 18 19 20 20 19 19 19 18 18 18 16 15 14 14 14 14 14 14 13 12 12 12 12 11 11
3 4 2 2 3 2 3 5 4 2 5 5 3 1 3 5 7 7 6 6 5 4 4 4 5 6 7 8 7 6 7 7 7 8 8 6 5 6 7 7 7 7 7 7 7 7 9 11 13 15 16 17 19 20 19 18 18 17 17 17 18 17 16 17 16 15 16 16 16 15 15 14 13 13 12 12 13 13 13 13 13 13 13 13 12 11
5 4 3 3 1 0 2 3 1 5 5 4 3 2 1 3 5 6 4 5 5 4 2 5 1 3 3 8 7 5 5 7 8 8 8 7 6 6 7 7 7 7 7 7 8 10 12 14 14 14 16 17 19 21 22 21 20 19 18 17 17 16 15 14 14 12 12 12 11 10 9 9 9 9 9 10 10 10 10 10 11 12 13 12 11 11
6 4 3 2 0 1 2 1 2 3 5 4 3 2 2 3 2 3 2 2 4 2 1 3 4 3 3 8 8 3 1 4 7 6 7 8 7 6 8 8 8 9 10 11 13 15 17 17 15 15 16 17 18 18 19 19 20 20 19 18 16 14 12 11 11 11 10 8 6 6 5 4 4 4 5 6 7 9 11 11 12 13 12 10 8 7
5 3 4 3 1 2 4 1 1 2 3 5 5 5 3 2 3 4 4 2 4 2 1 3 6 5 4 5 4 2 1 3 4 3 5 7 6 6 7 9 11 12 13 15 17 17 18 18 16 16 17 19 19 18 18 19 20 21 21 19 18 16 14 12 11 11 10 8 5 4 3 3 2 2 2 2 3 5 8 10 11 12 12 10 9 9
7 3 4 5 2 2 4 3 2 3 4 5 6 7 4 0 3 4 5 3 5 5 3 3 5 6 5 4 3 2 3 4 2 1 2 4 5 6 5 6 10 13 13 15 18 17 17 18 17 15 17 19 19 17 18 19 20 21 21 19 18 18 16 15 14 12 11 9 7 5 4 3 2 2 2 2 3 2 1 4 5 7 6 5 7 9
6 4 4 4 2 2 3 2 2 3 3 4 6 5 3 1 2 5 3 4 5 5 4 3 4 4 3 3 2 4 4 3 3 3 3 4 5 7 7 6 8 12 14 15 18 19 17 17 16 15 14 15 15 16 17 18 19 20 19 18 18 17 17 16 14 13 12 11 10 8 6 4 3 1 2 3 2 1 0 1 2 3 3 3 5 6
3 3 2 4 3 3 4 2 2 4 4 5 5 4 2 1 4 4 3 5 5 6 4 4 4 3 1 1 0 2 3 3 4 5 5 5 5 6 9 8 8 11 15 14 15 18 19 18 17 16 14 13 14 15 17 19 20 20 19 18 18 17 15 14 13 12 12 11 11 10 9 8 7 6 6 6 3 1 2 2 1 2 2 2 2 1
1 1 1 3 3 3 3 2 1 3 4 4 3 2 3 2 0 3 5 3 5 6 5 4 4 3 2 1 1 2 5 5 7 6 5 6 5 5 8 9 9 10 12 12 14 17 19 19 18 16 14 13 14 15 16 19 21 20 19 19 17 15 14 13 12 11 11 11 12 11 10 10 9 8 8 8 6 5 5 5 4 4 4 3 2 4
3 2 0 1 3 3 2 2 1 2 4 2 2 1 2 3 4 4 2 3 4 5 5 4 3 3 3 2 2 5 8 8 7 5 5 6 6 5 7 9 9 9 10 12 14 16 19 19 18 17 15 15 15 15 16 19 19 19 19 17 15 14 13 12 12 11 12 12 12 12 11 10 9 8 7 6 6 6 7 7 7 6 6 6 5 5
3 3 2 3 2 3 2 2 3 4 5 3 2 3 3 3 4 3 3 3 3 4 4 3 3 3 4 5 6 7 7 7 6 5 4 5 5 6 6 8 10 10 11 14 15 18 21 21 19 18 17 15 14 14 15 17 18 17 16 15 13 12 12 11 11 11 11 11 11 10 10 9 8 8 7 7 6 6 7 7 7 7 7 7 7 7
3 4 4 3 2 3 4 5 5 4 4 3 3 4 3 1 1 3 4 4 3 4 4 4 4 4 5 6 7 6 6 6 6 5 4 4 4 5 6 7 10 11 12 14 15 17 20 20 20 19 17 15 14 13 13 15 16 16 14 12 11 11 11 11 10 10 10 10 10 10 10 9 8 7 7 6 6 6 7 6 6 7 7 7 6 7
3 2 3 3 1 1 2 2 2 2 4 5 3 1 4 4 1 2 4 4 3 3 4 4 5 5 5 6 6 5 5 5 5 5 5 4 3 4 5 7 8 11 13 14 15 16 18 19 19 19 18 16 14 13 13 13 14 14 12 9 9 9 9 9 9 9 9 9 9 9 9 9 8 8 7 6 6 6 7 6 6 6 6 6 7 7
2 2 3 4 3 2 0 2 4 2 4 8 9 5 5 7 3 1 3 3 3 4 4 4 5 6 6 6 6 6 6 6 6 5 4 4 4 3 5 6 7 9 12 13 13 13 15 16 16 16 16 15 13 12 11 11 11 11 9 7 7 6 5 6 6 7 7 7 6 6 6 5 4 5 5 5 5 6 7 6 6 5 5 5 6 7
2 3 4 3 3 2 2 1 3 3 6 9 8 7 2 7 5 3 3 4 4 5 5 5 6 5 4 5 6 7 7 6 6 6 4 4 4 4 6 8 8 9 11 12 11 10 11 13 13 13 13 12 11 10 10 10 9 9 8 7 6 5 4 5 5 4 5 5 4 4 4 3 2 2 3 3 4 5 6 6 5 5 5 5 4 5
2 4 3 3 4 2 1 2 3 4 6 7 1 7 3 6 7 5 5 6 7 7 7 7 7 6 5 5 6 8 8 6 6 7 6 4 4 6 7 9 11 11 12 12 11 11 12 13 12 11 11 11 9 9 9 9 9 8 7 7 6 5 5 5 4 3 3 4 3 3 3 2 2 2 2 2 2 3 3 4 4 4 4 4 4 4
3 3 2 4 5 2 3 4 5 5 4 4 6 5 3 4 8 8 7 6 7 7 8 8 9 9 9 7 6 9 9 5 6 8 7 5 7 9 10 12 13 12 12 12 11 11 12 12 11 11 11 10 9 8 8 8 8 7 5 4 3 3 4 4 3 2 1 2 2 1 1 2 2 2 2 2 1 1 1 2 3 4 3 2 2 2
5 6 6 6 5 5 7 7 6 5 5 4 6 5 2 3 9 9 7 6 6 6 8 9 8 8 9 9 9 11 9 7 8 10 7 5 8 11 13 14 15 13 12 12 12 12 11 11 10 10 10 10 8 7 7 6 5 4 3 2 2 1 2 4 4 2 1 2 2 2 2 1 1 1 1 0 0 1 1 2 3 3 4 3 2 1
Wind_Direction
109 92 262 207 213 212 204 200 192 175 141 138 101 91 118 142 180 179 140 123 282 145 146 171 161 158 168 167 122 58 325 242 186 178 180 181 176 161 163 170 171 172 175 173 174 175 173 172 171 171 171 169 170 173 175 176 178 181 183 184 184 183 182 182 185 191 194 194 197 201 204 203 199 197 201 202 200 204 207 210 211 208 207 208 212 215
69 199 245 224 218 223 197 160 187 193 153 130 119 118 111 160 156 111 142 149 30 66 86 156 148 141 140 120 102 104 293 242 195 181 181 179 176 165 163 171 172 169 168 167 170 172 170 169 171 170 170 171 172 175 179 180 181 184 185 185 186 186 189 189 188 192 194 195 198 198 196 195 194 195 195 191 191 196 202 210 212 210 207 206 212 216
355 245 247 240 227 225 158 169 205 181 147 120 119 137 136 167 132 91 138 152 141 96 68 167 148 127 96 100 136 202 254 251 224 205 187 175 172 170 167 169 168 161 162 166 168 169 168 168 171 170 171 175 176 178 182 183 182 183 184 186 189 191 194 193 190 193 193 193 196 195 192 192 193 193 190 189 188 189 197 204 207 209 206 203 210 213
293 249 249 249 211 204 229 215 193 132 138 139 139 146 149 170 164 126 158 153 135 82 130 163 146 117 90 87 141 218 255 269 283 280 213 181 175 174 173 169 165 162 166 169 169 170 168 167 170 173 174 177 179 181 182 182 180 181 184 187 189 191 192 192 190 194 194 189 191 195 196 198 199 199 198 198 195 196 200 201 202 206 204 201 205 208
251 254 264 336 170 175 225 227 162 143 177 205 175 157 161 184 191 100 144 144 104 44 128 140 133 160 160 136 176 218 259 274 290 307 242 201 186 176 172 171 167 166 169 170 170 172 168 168 172 175 176 176 179 182 182 181 180 182 185 185 186 187 188 189 191 193 193 188 186 187 186 187 191 193 197 198 197 198 201 201 200 203 205 205 205 208
259 258 247 272 227 162 188 225 186 170 173 213 216 198 174 178 153 114 139 140 109 167 197 167 171 198 175 167 193 204 237 252 278 328 242 209 196 182 173 173 172 169 170 171 171 171 171 171 173 175 176 176 178 182 183 183 183 184 186 186 187 188 188 190 192 193 194 192 187 181 176 175 175 176 185 193 195 198 202 204 204 203 207 208 208 209
259 257 195 221 227 165 177 223 204 172 150 204 233 179 134 133 126 137 150 145 136 173 181 198 191 181 175 189 201 198 218 232 238 271 258 216 198 192 181 175 172 171 170 173 173 171 172 172 172 175 177 177 179 182 184 183 185 186 188 189 191 192 192 193 195 196 197 194 190 186 184 184 181 180 186 194 199 202 205 209 208 204 203 207 210 208
248 285 243 214 213 162 169 223 212 170 152 226 197 123 117 120 133 148 148 116 100 103 109 197 199 121 205 200 193 194 211 227 235 242 251 234 208 201 192 180 174 173 169 172 176 173 173 174 175 178 179 180 180 181 182 183 186 188 190 192 193 193 194 196 197 198 198 196 193 193 193 193 194 195 197 200 205 208 209 213 214 210 205 204 204 204
223 272 255 215 188 165 192 220 193 147 122 202 115 106 107 110 118 129 105 57 57 84 147 211 186 149 244 187 167 188 206 217 225 225 228 231 218 207 199 187 178 177 170 171 177 176 177 177 179 182 181 181 181 180 182 184 187 190 191 193 194 194 195 197 198 198 199 199 198 197 199 200 202 206 207 206 207 207 208 214 217 215 209 201 199 205
241 229 225 193 170 193 215 209 167 133 115 125 109 94 87 87 85 88 82 64 49 23 221 215 196 190 252 169 167 192 205 209 212 218 222 222 219 210 202 192 182 181 175 172 177 178 180 181 182 183 182 181 181 182 184 186 188 190 191 193 194 196 198 199 199 200 201 201 201 201 203 204 205 207 207 204 204 205 208 215 218 216 211 205 206 213
269 242 184 186 201 196 183 140 129 124 124 121 104 92 86 76 69 72 58 79 90 312 219 215 218 209 238 193 187 194 197 198 198 208 215 212 217 210 200 195 184 183 181 176 178 180 182 184 183 182 181 181 182 182 183 185 189 190 191 194 196 198 200 200 202 204 205 205 206 207 207 208 206 204 202 199 200 205 210 215 217 214 209 209 214 222
299 290 208 246 223 135 99 76 96 119 123 118 106 111 104 57 22 46 8 29 144 253 183 189 207 169 234 221 192 187 190 195 198 205 206 202 207 205 197 196 186 185 184 179 180 181 181 182 182 181 181 181 181 181 182 185 188 190 192 195 196 197 200 202 204 207 209 210 210 212 212 211 209 205 202 201 203 207 211 214 214 211 208 210 217 223
308 265 265 317 53 116 107 90 88 112 119 124 130 122 98 50 13 32 338 330 235 264 157 156 164 177 252 247 209 201 203 203 202 204 203 199 199 197 195 195 186 182 184 182 181 181 180 179 181 182 182 180 180 181 184 186 187 189 192 195 197 198 201 205 208 209 210 212 213 215 214 212 211 209 206 206 208 211 213 214 214 211 208 211 215 218
327 309 332 15 41 111 120 124 134 163 157 152 153 142 115 110 86 118 241 279 257 262 30 103 157 202 282 265 221 212 214 210 206 204 201 197 195 194 193 191 183 179 182 184 183 181 183 183 182 184 183 181 182 184 185 186 187 189 191 194 197 200 203 207 208 209 211 213 216 217 215 213 212 212 210 211 214 215 214 215 215 214 212 214 217 220
36 323 328 25 353 304 152 156 161 160 166 180 183 137 134 151 150 167 197 196 201 224 82 99 173 196 203 265 230 213 215 208 202 206 204 198 194 190 187 182 178 180 179 181 186 185 186 186 185 185 184 184 185 186 186 187 188 189 191 194 198 200 203 205 207 209 211 213 215 217 215 213 214 214 213 216 220 220 217 218 219 218 219 221 223 226
97 247 269 279 237 201 195 180 154 137 152 225 277 98 152 191 149 133 173 162 141 128 136 165 235 223 195 276 304 238 223 204 192 200 205 205 196 179 181 185 183 184 178 178 186 189 189 188 187 186 186 187 187 187 187 188 189 190 192 195 198 201 203 205 207 210 212 213 214 216 215 215 216 217 218 220 223 223 222 223 223 222 224 228 230 232
12 282 282 321 342 212 187 179 164 151 152 196 288 175 227 198 123 114 84 61 94 108 188 187 254 286 227 278 266 222 233 212 199 200 201 204 198 183 185 189 187 186 179 179 185 187 189 190 189 188 188 188 188 188 189 191 192 193 194 195 197 200 203 205 207 210 212 213 215 217 217 218 219 220 221 222 223 224 224 225 226 226 228 233 235 235
176 285 295 17 6 311 211 132 165 194 152 117 200 224 216 29 67 104 97 27 62 188 237 200 236 236 182 267 231 203 215 216 207 205 202 202 198 193 193 189 190 190 180 178 182 185 188 190 191 191 190 190 190 191 192 193 195 195 197 198 198 199 201 204 206 208 211 213 215 218 218 219 221 222 224 224 224 224 224 225 226 227 231 236 235 235
111 323 295 354 359 318 355 81 138 256 264 147 192 199 127 79 341 86 108 128 146 224 253 244 257 230 203 217 194 195 211 210 204 206 204 204 200 197 195 188 188 188 179 174 178 182 187 191 193 192 192 193 193 193 194 195 196 196 198 200 200 201 203 204 204 206 209 212 214 217 218 219 221 223 226 226 225 225 226 228 230 231 234 236 236 235
70 65 288 303 336 334 359 61 132 267 302 335 108 148 122 143 171 157 155 154 146 180 231 233 274 251 228 208 179 189 206 201 196 201 203 206 205 200 196 190 188 187 182 174 173 180 185 190 195 194 193 194 194 195 195 195 195 196 197 199 200 202 203 203 203 204 208 211 213 215 218 219 220 222 225 226 225 226 229 232 233 234 236 237 238 237
45 66 289 308 337 2 16 56 137 203 272 327 36 216 284 321 121 146 182 156 128 145 183 174 265 265 255 199 172 180 197 194 189 194 198 198 192 184 175 173 178 181 178 174 175 183 186 189 195 196 195 194 195 196 195 194 195 197 197 198 199 200 201 201 202 203 206 210 211 214 217 218 219 221 223 225 226 227 231 233 233 233 237 241 241 240
29 64 30 326 338 338 273 295 335 282 212 184 118 29 257 213 135 119 222 260 116 130 172 160 200 268 284 261 172 174 186 186 175 176 180 174 164 160 162 163 163 165 170 171 164 158 163 179 195 200 198 196 194 194 195 195 195 196 196 197 197 198 200 201 202 203 206 208 210 214 217 218 220 222 223 224 226 229 230 231 231 232 237 241 243 242
122 87 67 311 285 274 276 286 320 7 104 143 103 40 308 201 110 120 191 231 126 106 154 134 185 258 295 322 215 176 173 167 161 162 161 158 159 165 177 176 163 159 157 145 129 115 107 98 85 219 208 201 198 196 194 194 195 196 196 195 195 197 200 202 202 203 205 208 211 214 217 220 223 224 225 225 228 230 229 227 230 233 237 241 242 242
68 61 28 319 293 308 311 296 327 32 47 56 13 8 2 322 297 173 186 181 147 160 145 98 248 259 311 337 340 135 135 138 144 156 153 152 163 179 189 184 162 150 140 129 124 130 129 122 110 83 58 179 205 206 202 197 195 195 195 194 194 196 200 201 202 202 204 207 211 214 216 219 223 225 226 228 230 231 228 227 230 233 235 238 239 240
20 47 48 27 354 351 351 343 354 6 16 26 320 326 338 328 316 260 160 76 102 206 153 140 224 266 334 359 24 54 85 104 84 51 138 152 168 187 193 179 158 147 143 140 141 145 144 142 140 135 143 149 110 54 316 232 206 197 195 195 194 196 199 200 200 201 203 206 209 212 216 219 223 226 227 228 230 230 229 228 231 233 236 238 239 241
69 74 90 91 75 25 2 324 313 321 329 340 320 323 342 347 337 311 131 95 160 238 154 148 203 262 13 29 36 40 57 74 63 47 66 138 164 179 181 169 161 157 158 160 159 160 159 158 158 159 169 176 162 134 88 9 300 209 193 191 190 191 193 196 200 200 201 204 207 210 214 218 223 226 226 225 226 228 229 229 231 236 240 242 242 244
91 58 88 125 137 167 189 231 256 279 327 332 325 334 349 347 340 27 110 132 188 205 212 204 164 128 90 54 50 47 59 63 68 83 88 105 126 139 147 150 149 147 159 166 167 173 168 164 168 169 171 170 162 151 142 123 89 85 108 149 173 182 186 189 198 201 201 203 206 210 214 219 224 227 226 225 225 227 229 231 235 241 245 245 244 244
91 55 186 123 126 189 193 223 275 12 22 338 338 350 354 349 355 42 86 217 198 143 249 250 145 118 135 121 105 110 111 109 115 118 129 128 93 87 99 113 120 118 132 150 159 178 175 169 171 168 165 159 151 146 146 145 145 146 153 167 178 185 188 190 195 201 202 204 206 210 216 220 225 228 230 230 229 228 230 234 241 246 246 246 247 249
102 123 203 137 111 218 201 219 4 45 18 345 16 11 360 352 360 34 22 276 199 151 246 259 109 104 116 124 122 135 132 126 126 124 124 117 99 96 106 112 117 113 115 135 150 167 168 167 167 161 157 150 143 142 145 149 155 163 174 184 191 191 189 191 196 199 201 205 207 212 217 220 224 228 233 234 233 232 232 236 242 246 247 247 250 253
105 163 211 138 124 212 209 218 64 58 20 4 22 16 12 1 348 7 13 1 68 97 75 76 87 84 79 97 100 102 106 99 102 110 117 120 121 122 126 128 118 108 106 119 134 153 160 150 148 153 152 147 143 140 142 149 157 164 172 181 188 190 190 193 198 198 199 203 208 213 216 218 222 228 232 233 233 234 235 236 240 242 241 239 239 242
90 259 278 104 89 303 278 285 59 95 75 38 10 5 13 11 351 357 11 14 43 68 75 80 82 74 69 84 82 84 96 95 98 110 112 109 110 114 123 128 118 111 111 114 120 127 128 125 132 138 137 138 143 140 138 143 152 157 163 171 180 187 192 197 200 200 201 203 207 211 215 217 221 225 227 228 229 232 235 236 239 239 235 232 232 236
84 108 344 62 72 277 280 321 293 254 51 22 6 3 2 8 12 4 4 6 11 37 59 59 63 70 88 96 85 83 94 90 82 82 76 64 68 88 105 107 101 113 131 136 132 122 115 110 115 126 126 128 139 145 139 137 141 149 157 166 175 183 189 194 195 196 198 201 207 211 212 215 215 217 220 221 223 227 229 232 236 236 232 230 231 235
115 115 87 88 83 275 286 358 358 15 10 329 321 356 345 343 3 324 356 11 360 356 43 37 4 24 82 89 79 70 73 68 56 51 50 50 60 77 97 100 91 90 101 109 110 108 105 96 93 101 110 118 132 148 153 147 140 141 148 157 166 172 175 179 182 184 187 195 205 207 206 208 209 209 212 213 216 221 223 225 229 227 223 222 224 227
110 105 131 135 116 260 286 349 41 65 274 258 246 115 78 86 100 79 29 16 3 17 75 51 1 14 57 66 57 58 61 54 50 51 50 54 65 77 89 92 84 74 70 77 90 95 96 97 98 102 106 112 122 135 151 157 152 146 146 151 157 165 172 177 177 176 178 186 194 198 201 208 213 216 218 217 217 221 220 218 217 212 210 212 216 221
95 95 120 112 110 218 305 22 47 235 237 243 257 196 140 121 109 93 54 21 17 39 92 85 13 5 55 67 51 51 59 58 55 49 50 63 81 88 92 93 91 85 74 70 73 73 77 84 89 94 99 107 119 128 137 147 152 152 150 151 157 164 174 179 176 172 176 182 189 195 202 211 218 225 230 228 227 227 226 225 223 219 219 220 223 231
124 127 122 87 88 278 19 57 160 247 264 281 306 304 211 145 116 98 55 1 357 4 78 111 93 310 87 97 83 55 49 60 61 48 41 52 67 86 96 96 89 84 77 72 71 69 72 80 88 96 101 107 119 128 133 137 140 138 137 144 153 157 163 166 162 160 169 180 188 196 204 213 222 230 235 234 229 223 223 227 228 230 233 234 238 245
123 135 115 78 116 153 102 137 255 306 310 297 302 297 205 172 146 124 125 292 302 329 51 132 172 221 158 118 107 84 35 64 64 44 31 37 43 65 85 86 80 80 80 76 73 76 82 87 93 100 103 104 109 117 123 130 134 133 132 138 146 149 151 147 135 132 141 151 164 183 197 211 226 237 240 240 236 230 233 238 242 250 259 267 278 286
86 135 152 139 162 106 97 80 355 353 287 254 247 257 241 160 150 133 115 292 269 222 176 177 171 172 161 132 125 175 198 79 68 34 26 34 33 46 73 82 83 85 89 90 87 85 90 96 100 104 106 105 106 112 119 126 130 128 125 129 136 141 142 132 119 118 121 121 129 149 168 188 204 212 220 229 229 236 247 250 251 258 265 270 274 279
54 53 110 112 106 108 109 118 176 203 241 240 231 253 283 48 148 119 73 333 257 204 189 190 171 166 165 159 156 144 107 95 116 165 58 53 35 30 48 72 82 86 88 94 98 97 99 103 105 107 108 107 108 115 123 128 129 123 119 121 127 128 124 118 114 113 113 113 116 123 134 153 175 192 183 125 86 86 257 259 258 269 279 279 276 278
51 38 65 97 123 153 131 135 215 225 250 245 231 245 276 324 97 87 57 286 232 189 183 189 196 203 180 160 133 108 112 145 165 141 99 83 57 49 53 53 74 89 88 89 96 98 99 100 98 96 98 101 107 116 124 128 124 117 115 117 118 113 108 109 111 110 109 108 107 106 106 105 109 119 96 73 39 10 354 292 283 308 334 325 297 289
41 36 71 115 137 160 149 160 249 259 251 237 233 226 184 87 61 90 190 230 190 166 182 194 209 221 174 162 178 117 141 155 124 105 96 90 76 71 77 71 71 88 93 95 100 101 99 96 95 96 98 104 111 114 118 119 112 107 108 109 105 102 103 107 109 108 106 102 98 94 88 83 81 79 88 99 114 135 105 100 100 70 35 351 305 237
120 56 68 111 130 151 149 139 281 280 254 212 193 182 136 114 140 207 212 198 141 153 181 199 215 213 160 192 258 129 120 106 96 96 101 101 99 97 96 93 88 90 98 103 104 103 102 99 99 101 104 109 112 112 114 113 107 104 107 106 104 107 110 111 110 108 105 99 93 89 84 83 85 87 97 108 111 101 91 85 84 83 75 69 72 92
168 137 128 174 151 118 85 79 98 255 254 196 115 106 120 151 208 215 175 89 118 155 172 185 213 211 158 137 127 118 112 101 93 94 99 106 114 113 109 113 114 110 109 108 106 107 106 103 101 101 103 107 109 109 111 109 105 102 102 101 103 108 111 111 110 108 106 101 93 87 84 84 85 88 93 94 88 82 79 76 79 88 96 103 105 101
163 142 177 222 186 125 119 182 199 220 245 238 163 182 208 205 206 181 123 103 125 152 164 177 198 195 158 134 124 118 113 108 106 104 101 106 113 113 115 121 121 116 109 106 109 112 109 105 103 103 104 106 106 106 107 105 100 97 95 93 96 100 100 103 107 107 105 101 94 88 87 88 89 90 87 80 72 73 75 77 83 96 109 114 112 111
214 184 170 177 181 163 176 211 231 239 259 258 198 186 185 160 137 127 124 125 129 144 160 162 156 152 138 126 119 113 112 113 112 112 115 117 115 116 117 114 113 111 106 104 107 109 107 106 107 107 107 105 102 99 99 99 97 92 87 86 88 89 89 91 95 99 100 98 95 94 91 91 90 87 82 78 72 71 75 80 88 103 124 136 128 121
235 183 132 124 144 170 171 226 282 331 355 350 334 157 118 102 96 124 114 102 93 115 134 142 141 133 122 120 120 117 122 125 118 114 120 122 118 117 115 109 110 112 111 108 108 109 109 109 109 109 109 108 106 102 97 96 96 93 90 90 90 88 88 89 88 90 91 93 98 99 92 85 78 72 70 77 83 78 76 77 84 99 126 145 149 145
258 116 87 92 100 101 112 329 348 22 41 16 354 347 75 80 40 23 109 105 78 88 105 117 122 118 113 120 130 137 142 136 125 122 127 129 134 137 124 117 117 118 118 115 112 110 109 107 105 106 108 107 108 107 102 100 100 98 98 100 95 89 89 86 83 84 83 84 89 91 83 71 59 52 56 68 80 83 78 77 85 96 107 124 151 163
198 117 98 96 91 114 196 264 7 35 64 50 6 322 26 89 69 35 82 105 93 84 83 87 98 109 118 125 134 140 144 143 138 138 144 145 146 145 138 135 135 131 128 127 122 116 110 105 102 102 103 105 107 104 98 97 100 101 100 96 88 80 73 66 64 67 68 64 59 58 50 35 19 29 50 69 88 94 89 85 85 93 98 101 120 160
141 111 127 125 93 75 153 140 90 65 65 74 10 285 303 98 99 71 65 84 90 86 78 66 64 71 91 112 126 128 131 142 148 144 149 161 157 147 145 147 146 144 141 138 133 126 119 114 111 109 107 108 109 102 94 93 96 99 98 89 78 68 59 51 47 45 41 30 25 29 27 27 42 60 62 79 101 96 82 73 67 74 92 101 103 117
120 126 148 122 117 160 208 190 159 126 107 149 195 239 304 80 95 83 67 67 77 89 92 80 64 57 61 73 102 118 119 121 133 138 145 162 166 159 152 148 146 147 148 145 139 133 128 123 120 117 117 118 115 105 100 99 97 95 89 70 51 46 45 43 44 46 15 16 41 87 84 71 90 95 79 70 62 6 1 32 41 43 51 74 121 136
152 173 172 145 157 207 201 188 174 137 128 173 181 175 189 103 93 89 88 85 82 89 93 90 82 71 57 50 72 100 113 114 120 126 127 138 154 154 151 151 152 153 154 152 148 144 142 139 135 130 129 132 128 118 114 112 106 99 83 37 6 22 56 50 50 68 129 130 123 136 140 128 146 164 161 123 53 33 64 68 46 36 37 41 58 137